Retour au catalogue

STARLINK-3521

ActifCommunicationsVLEO
NORAD 51742·PAYLOAD·🇺🇸 United States

Lancé Feb 21, 2022 depuis Cape Canaveral Space Force Station

Loading…

Prochains Passages (prochaines 24 heures)

TLE

FraisSource: CelesTrak SupGP

Époque: Sep 15, 2026, 02:43 UTC

1 51742C 22016AE  26258.11368056  .00013743  00000+0  40610-3 0  2582
2 51742  53.1570 174.6903 0001269  84.1155 195.4765 15.34378535    16

Suivez STARLINK-3521 en temps réel avec AllMySat

Download on the App Store